STARLINK-3102, 49151

Orbit data source: Space-Track

STARLINK-3102, 49151 is a payload satellite owned by SpaceX/Seattle (US) in LEO that was launched on Tue, 14 Sep 2021 UTC via an FALCON 9 launch vehicle from the Air Force Western Test Range (AFWTR). Payload-class satellites include a variety of spacecraft equipped with specific instruments for various scientific and technological missions. These include communications satellites like Starlink; space stations such as the ISS; scientific satellites like the Hubble; Earth observation satellites from companies like Planet Labs, Umbra, and HawkEye 360; GPS; miniature CubeSats for education and research; and military/defense satellites.

Loading next visibility...
Identifier
49151, 2021-082X
Orbit
LEO
Country
Flag of USUS
Related business
Manufacturer
SpaceX/Seattle
Mission
Operational Commercial Communications
Bus & Motor
STARLINK, Unknown motor
Mass
297 kg wet, ~275 kg dry
Launch date (UTC)
2021-09-14 (5 years ago)
Launch vehicle
FALCON 9
Launch site
Air Force Western Test Range (AFWTR)
Object type
Payload
Rocket body
Debris
Shape & HBR
Box + 1 Pan, 10.1 m
Radar Cross Section
13.562 m², Large (>1 m²)

Expand to show TLE details & history
Last TLE update: 17 hours ago

TLE from 17 hours ago
0 STARLINK-3102
1 49151U 21082X   26125.38853510  .00000318  00000-0  34457-4 0  9991
2 49151  69.9982 111.4901 0003461 268.1527  91.9235 14.98331402256655
Epoch: 2026-05-05T09:19Z
TLE epoch observation values (Epoch: 2026-05-05T09:19:29.432Z)
Latitude
-0.0001°
Longitude
108.35334°
Altitude
574.557 km
Speed
7.574 km/s
True Right ascension
07h 25m 57s
True Declination
0° 00' 00"
Sunlit
Object was in daylight at epoch
Visualization orbit readout
Latitude
Unknown
Longitude
Unknown
Altitude
Unknown
Speed
Unknown
Apparent Right ascension
Unknown
Apparent Declination
Unknown
Sunlit
N/A
Visualization observer readout
Local Sidereal Time
10:39:00
Azimuth
Unknown
Elevation
Unknown
Doppler factor
Unknown
Orbital elements
Apogee altitude
572.405 km
Perigee altitude
567.595 km
Semi-major axis
6,948.137 km
Eccentricity
0.00035
Inclination
69.9982°
RAAN
111.4901°
Arg. of periapsis
268.1527°
True anomaly
91.96314°
Mean anomaly
91.9235°
Eccentric anomaly
91.94332°
Mean motion
3.74749 °/min
Orbital period
96.06 mins
BSTAR
0.000034457
Loading maneuver chart data...
Computing Atmospheric mass density...

Documentation

Showing up to 5 results
|